,,Stat5,,Stat1,,Stat2,,Stat3,,Stat4,,Wind1,,Wind1,
time,status,PA1M_AVG,status,PR1M_SUM,status,RH1M_AVG,status,SR1M_AVG,status,TA1M_AVG,status,W1dAve1m,status,W1sAve1m,
2001-01-04, 00:00:00,VALID,918.358,VALID,0,VALID,99.1775,VALID,0.0679233,VALID,19.1201,VALID,49,VALID,0.844572,
2001-01-04, 00:01:00,VALID,918.381,VALID,0,VALID,99.189,VALID,0,VALID,19.1296,VALID,91,VALID,1.07728,
2001-01-04, 00:02:00,VALID,918.371,VALID,0,VALID,99.2144,VALID,0.0339617,VALID,19.142,VALID,96,VALID,0.926241,
2001-01-04, 00:03:00,VALID,918.355,VALID,0,VALID,99.2284,VALID,0,VALID,19.1818,VALID,91,VALID,0.810938,
2001-01-04, 00:04:00,VALID,918.343,VALID,0,VALID,99.2386,VALID,0.0169808,VALID,19.1713,VALID,9,VALID,0.0429688,
2001-01-04, 00:05:00,VALID,918.364,VALID,0,VALID,99.2347,VALID,0.0169808,VALID,19.1783,VALID,275,VALID,0.048353,
2001-01-04, 00:06:00,VALID,918.371,VALID,0,VALID,99.2398,VALID,0.0509425,VALID,19.1743,VALID,288,VALID,0,
2001-01-04, 00:07:00,VALID,918.366,VALID,0,VALID,99.2538,VALID,0.0509425,VALID,19.1843,VALID,127,VALID,0.522321,
2001-01-04, 00:08:00,VALID,918.343,VALID,0,VALID,99.2627,VALID,0.0169808,VALID,19.2205,VALID,95,VALID,1.03866,
2001-01-04, 00:09:00,VALID,918.319,VALID,0,VALID,99.2729,VALID,0.0169808,VALID,19.2129,VALID,85,VALID,0.578571,
2001-01-04, 00:10:00,VALID,918.325,VALID,0,VALID,99.2627,VALID,0.0169808,VALID,19.2104,VALID,83,VALID,1.09034,
2001-01-04, 00:11:00,VALID,918.317,VALID,0,VALID,99.2475,VALID,0.0169808,VALID,19.2004,VALID,91,VALID,0.950087,
2001-01-04, 00:12:00,VALID,918.277,VALID,0,VALID,99.2564,VALID,0,VALID,19.2106,VALID,97,VALID,1.04609,
2001-01-04, 00:13:00,VALID,918.277,VALID,0,VALID,99.264,VALID,0,VALID,19.2069,VALID,98,VALID,1.04367,
2001-01-04, 00:14:00,VALID,918.271,VALID,0,VALID,99.2754,VALID,0.0339617,VALID,19.22,VALID,97,VALID,0.932771,
2001-01-04, 00:15:00,VALID,918.264,VALID,0,VALID,99.264,VALID,0.0339617,VALID,19.2136,VALID,90,VALID,0.934696,
2001-01-04, 00:16:00,VALID,918.239,VALID,0,VALID,99.2602,VALID,0.0509425,VALID,19.1972,VALID,91,VALID,0.674137,
2001-01-04, 00:17:00,VALID,918.214,VALID,0,VALID,99.2462,VALID,0.0679233,VALID,19.1681,VALID,91,VALID,0.97496,
2001-01-04, 00:18:00,VALID,918.193,VALID,0,VALID,99.2386,VALID,0.0339617,VALID,19.1587,VALID,84,VALID,0.992188,
2001-01-04, 00:19:00,VALID,918.177,VALID,0,VALID,99.2297,VALID,0.0509425,VALID,19.1326,VALID,77,VALID,1.1326,
2001-01-04, 00:20:00,VALID,918.191,VALID,0,VALID,99.2309,VALID,0.0169808,VALID,19.1229,VALID,86,VALID,1.06855,
2001-01-04, 00:21:00,VALID,918.165,VALID,0,VALID,99.2347,VALID,0.0339617,VALID,19.1167,VALID,89,VALID,1.17147,
2001-01-04, 00:22:00,VALID,918.154,VALID,0,VALID,99.2437,VALID,0.0169808,VALID,19.1199,VALID,89,VALID,1.43257,
2001-01-04, 00:23:00,VALID,918.134,VALID,0,VALID,99.2449,VALID,0.0169808,VALID,19.1008,VALID,82,VALID,1.23578,
2001-01-04, 00:24:00,VALID,918.125,VALID,0,VALID,99.2538,VALID,0.0509425,VALID,19.0966,VALID,86,VALID,1.29317,
2001-01-04, 00:25:00,VALID,918.111,VALID,0,VALID,99.2615,VALID,0.0169808,VALID,19.101,VALID,79,VALID,1.19832,
2001-01-04, 00:26:00,VALID,918.131,VALID,0,VALID,99.278,VALID,0.0339617,VALID,19.0871,VALID,86,VALID,1.24902,
2001-01-04, 00:27:00,VALID,918.107,VALID,0,VALID,99.2742,VALID,0.0679233,VALID,19.0908,VALID,78,VALID,1.04054,
2001-01-04, 00:28:00,VALID,918.101,VALID,0,VALID,99.2805,VALID,0.0509425,VALID,19.0777,VALID,71,VALID,1.2957,
2001-01-04, 00:29:00,VALID,918.086,VALID,0,VALID,99.2856,VALID,0.0509425,VALID,19.0811,VALID,91,VALID,1.09916,
2001-01-04, 00:30:00,VALID,918.077,VALID,0,VALID,99.2932,VALID,0,VALID,19.0846,VALID,75,VALID,1.38096,
2001-01-04, 00:31:00,VALID,918.078,VALID,0,VALID,99.2958,VALID,0.0169808,VALID,19.0717,VALID,73,VALID,0.951923,
2001-01-04, 00:32:00,VALID,918.066,VALID,0,VALID,99.3009,VALID,0.0169808,VALID,19.0784,VALID,66,VALID,0.548314,
2001-01-04, 00:33:00,VALID,918.06,VALID,0,VALID,99.3136,VALID,-0.0169808,VALID,19.0682,VALID,60,VALID,0.338542,
2001-01-04, 00:34:00,VALID,918.049,VALID,0,VALID,99.3199,VALID,0,VALID,19.0747,VALID,88,VALID,0.278125,
2001-01-04, 00:35:00,VALID,918.03,VALID,0,VALID,99.3199,VALID,0,VALID,19.0816,VALID,102,VALID,0.372466,
2001-01-04, 00:36:00,VALID,918.026,VALID,0,VALID,99.3365,VALID,0,VALID,19.1015,VALID,88,VALID,0.813867,
2001-01-04, 00:37:00,VALID,918.022,VALID,0,VALID,99.3466,VALID,0.0169808,VALID,19.101,VALID,87,VALID,0.615585,
2001-01-04, 00:38:00,VALID,918.028,VALID,0,VALID,99.3479,VALID,0,VALID,19.1015,VALID,78,VALID,0.188117,
2001-01-04, 00:39:00,VALID,918.012,VALID,0,VALID,99.339,VALID,0,VALID,19.1012,VALID,89,VALID,0.708734,
2001-01-04, 00:40:00,VALID,918.02,VALID,0,VALID,99.3517,VALID,0,VALID,19.0851,VALID,95,VALID,0.810855,
2001-01-04, 00:41:00,VALID,918.019,VALID,0,VALID,99.353,VALID,-0.0169808,VALID,19.0913,VALID,95,VALID,0.694311,
2001-01-04, 00:42:00,VALID,918.029,VALID,0,VALID,99.3543,VALID,0.0169808,VALID,19.0714,VALID,78,VALID,0.587109,
2001-01-04, 00:43:00,VALID,918.03,VALID,0,VALID,99.3441,VALID,0,VALID,19.0588,VALID,56,VALID,0.924409,
2001-01-04, 00:44:00,VALID,918.032,VALID,0,VALID,99.3505,VALID,0,VALID,19.0428,VALID,80,VALID,0.511133,
2001-01-04, 00:45:00,VALID,918.024,VALID,0.2,VALID,99.3517,VALID,0,VALID,19.0262,VALID,45,VALID,0.185296,
2001-01-04, 00:46:00,VALID,917.997,VALID,0,VALID,99.3505,VALID,0,VALID,19.0364,VALID,92,VALID,0.39227,
2001-01-04, 00:47:00,VALID,917.981,VALID,0,VALID,99.3454,VALID,-0.0169808,VALID,19.0334,VALID,92,VALID,0.772236,
2001-01-04, 00:48:00,VALID,917.952,VALID,0,VALID,99.339,VALID,0,VALID,19.014,VALID,69,VALID,0.434827,
2001-01-04, 00:49:00,VALID,917.947,VALID,0,VALID,99.3352,VALID,0,VALID,18.9946,VALID,69,VALID,0.806891,
2001-01-04, 00:50:00,VALID,917.902,VALID,0,VALID,99.3288,VALID,-0.0169808,VALID,18.9718,VALID,75,VALID,0.572266,
2001-01-04, 00:51:00,VALID,917.886,VALID,0,VALID,99.3263,VALID,0,VALID,18.9817,VALID,81,VALID,0.540118,
2001-01-04, 00:52:00,VALID,917.888,VALID,0,VALID,99.3187,VALID,0,VALID,18.9755,VALID,65,VALID,0.718555,
2001-01-04, 00:53:00,VALID,917.882,VALID,0,VALID,99.311,VALID,0,VALID,18.9559,VALID,60,VALID,0.550881,
2001-01-04, 00:54:00,VALID,917.874,VALID,0,VALID,99.3187,VALID,-0.0169808,VALID,18.9526,VALID,70,VALID,0.543174,
2001-01-04, 00:55:00,VALID,917.867,VALID,0,VALID,99.3098,VALID,0,VALID,18.9593,VALID,65,VALID,0.590144,
2001-01-04, 00:56:00,VALID,917.86,VALID,0,VALID,99.311,VALID,0.0169808,VALID,18.9328,VALID,84,VALID,0.545847,
2001-01-04, 00:57:00,VALID,917.859,VALID,0,VALID,99.3098,VALID,-0.0169808,VALID,18.9325,VALID,98,VALID,1.14443,
2001-01-04, 00:58:00,VALID,917.863,VALID,0,VALID,99.3174,VALID,0,VALID,18.9395,VALID,96,VALID,0.433789,
2001-01-04, 00:59:00,VALID,917.855,VALID,0,VALID,99.3288,VALID,0,VALID,18.9531,VALID,95,VALID,0.00443412,
2001-01-04, 01:00:00,VALID,917.851,VALID,0,VALID,99.3136,VALID,-0.0509425,VALID,18.9298,VALID,86,VALID,0.56582,
2001-01-04, 01:01:00,VALID,917.847,VALID,0,VALID,99.3187,VALID,0,VALID,18.9365,VALID,81,VALID,0.0216346,
2001-01-04, 01:02:00,VALID,917.835,VALID,0,VALID,99.3174,VALID,0,VALID,18.9434,VALID,81,VALID,0,
2001-01-04, 01:03:00,VALID,917.83,VALID,0,VALID,99.3098,VALID,0,VALID,18.9198,VALID,70,VALID,0.0488782,
2001-01-04, 01:04:00,VALID,917.811,VALID,0,VALID,99.306,VALID,0,VALID,18.9206,VALID,58,VALID,0.0984786,
2001-01-04, 01:05:00,VALID,917.802,VALID,0,VALID,99.2971,VALID,-0.0169808,VALID,18.9044,VALID,56,VALID,0.213341,
2001-01-04, 01:06:00,VALID,917.784,VALID,0,VALID,99.2945,VALID,-0.0339617,VALID,18.9176,VALID,55,VALID,0.261523,
2001-01-04, 01:07:00,VALID,917.768,VALID,0,VALID,99.2818,VALID,0,VALID,18.9079,VALID,68,VALID,0.244299,
2001-01-04, 01:08:00,VALID,917.749,VALID,0,VALID,99.2729,VALID,0,VALID,18.8977,VALID,84,VALID,0.231641,
2001-01-04, 01:09:00,VALID,917.728,VALID,0,VALID,99.2691,VALID,0,VALID,18.9178,VALID,86,VALID,0.315505,
2001-01-04, 01:10:00,VALID,917.701,VALID,0,VALID,99.2576,VALID,-0.0169808,VALID,18.895,VALID,60,VALID,0.503495,
2001-01-04, 01:11:00,VALID,917.681,VALID,0,VALID,99.2551,VALID,-0.0169808,VALID,18.895,VALID,94,VALID,0.63722,
2001-01-04, 01:12:00,VALID,917.66,VALID,0,VALID,99.264,VALID,0,VALID,18.895,VALID,70,VALID,0.577508,
2001-01-04, 01:13:00,VALID,917.639,VALID,0,VALID,99.2525,VALID,-0.0339617,VALID,18.8788,VALID,47,VALID,1.01823,
2001-01-04, 01:14:00,VALID,917.628,VALID,0,VALID,99.2335,VALID,-0.0339617,VALID,18.8756,VALID,73,VALID,0.752734,
2001-01-04, 01:15:00,VALID,917.608,VALID,0,VALID,99.2335,VALID,0,VALID,18.8557,VALID,94,VALID,0.991343,
2001-01-04, 01:16:00,VALID,917.581,VALID,0,VALID,99.2042,VALID,0,VALID,18.8562,VALID,80,VALID,1.04668,
2001-01-04, 01:17:00,VALID,917.577,VALID,0,VALID,99.1915,VALID,0,VALID,18.853,VALID,71,VALID,0.834335,
2001-01-04, 01:18:00,VALID,917.56,VALID,0,VALID,99.1686,VALID,-0.0169808,VALID,18.8463,VALID,90,VALID,0.856497,
2001-01-04, 01:19:00,VALID,917.533,VALID,0,VALID,99.1572,VALID,-0.0169808,VALID,18.8465,VALID,86,VALID,0.456731,
2001-01-04, 01:20:00,VALID,917.514,VALID,0,VALID,99.1496,VALID,-0.0169808,VALID,18.8303,VALID,78,VALID,0.429688,
2001-01-04, 01:21:00,VALID,917.51,VALID,0,VALID,99.1508,VALID,0,VALID,18.8269,VALID,110,VALID,0.261018,
2001-01-04, 01:22:00,VALID,917.498,VALID,0,VALID,99.1381,VALID,0,VALID,18.8266,VALID,83,VALID,0.116406,
2001-01-04, 01:23:00,VALID,917.479,VALID,0,VALID,99.1241,VALID,0,VALID,18.8234,VALID,56,VALID,0.27935,
2001-01-04, 01:24:00,VALID,917.469,VALID,0,VALID,99.1127,VALID,0.0169808,VALID,18.807,VALID,52,VALID,0.357617,
2001-01-04, 01:25:00,VALID,917.451,VALID,0,VALID,99.119,VALID,0,VALID,18.8303,VALID,90,VALID,1.09796,
2001-01-04, 01:26:00,VALID,917.423,VALID,0,VALID,99.1089,VALID,0.0169808,VALID,18.8174,VALID,75,VALID,1.13754,
2001-01-04, 01:27:00,VALID,917.415,VALID,0,VALID,99.105,VALID,-0.0169808,VALID,18.8174,VALID,48,VALID,0.555288,
2001-01-04, 01:28:00,VALID,917.397,VALID,0,VALID,99.0936,VALID,0,VALID,18.7976,VALID,92,VALID,0.2206,
2001-01-04, 01:29:00,VALID,917.388,VALID,0,VALID,99.1216,VALID,0,VALID,18.8147,VALID,89,VALID,0,
2001-01-04, 01:30:00,VALID,917.359,VALID,0,VALID,99.1101,VALID,0,VALID,18.8107,VALID,104,VALID,0,
2001-01-04, 01:31:00,VALID,917.342,VALID,0,VALID,99.1178,VALID,0,VALID,18.8077,VALID,105,VALID,0,
2001-01-04, 01:32:00,VALID,917.326,VALID,0,VALID,99.1203,VALID,-0.0169808,VALID,18.798,VALID,105,VALID,0,
2001-01-04, 01:33:00,VALID,917.313,VALID,0,VALID,99.1114,VALID,0,VALID,18.795,VALID,105,VALID,0,
2001-01-04, 01:34:00,VALID,917.288,VALID,0,VALID,99.1101,VALID,0,VALID,18.7916,VALID,105,VALID,0,
2001-01-04, 01:35:00,VALID,917.273,VALID,0,VALID,99.1343,VALID,-0.0339617,VALID,18.7782,VALID,105,VALID,0,
2001-01-04, 01:36:00,VALID,917.257,VALID,0,VALID,99.1356,VALID,0,VALID,18.7782,VALID,108,VALID,0,
2001-01-04, 01:37:00,VALID,917.233,VALID,0,VALID,99.1572,VALID,0,VALID,18.7978,VALID,108,VALID,0,
2001-01-04, 01:38:00,VALID,917.23,VALID,0,VALID,99.1648,VALID,0,VALID,18.7941,VALID,108,VALID,0,
2001-01-04, 01:39:00,VALID,917.214,VALID,0,VALID,99.1775,VALID,0,VALID,18.8142,VALID,108,VALID,0,
2001-01-04, 01:40:00,VALID,917.194,VALID,0,VALID,99.1852,VALID,0.0169808,VALID,18.8239,VALID,108,VALID,0,
2001-01-04, 01:41:00,VALID,917.17,VALID,0,VALID,99.1775,VALID,0.0169808,VALID,18.8211,VALID,108,VALID,0,
2001-01-04, 01:42:00,VALID,917.152,VALID,0,VALID,99.1775,VALID,0.0169808,VALID,18.8082,VALID,108,VALID,0,
2001-01-04, 01:43:00,VALID,917.126,VALID,0,VALID,99.1788,VALID,0,VALID,18.7752,VALID,108,VALID,0,
2001-01-04, 01:44:00,VALID,917.103,VALID,0,VALID,99.1674,VALID,-0.0169808,VALID,18.7625,VALID,107,VALID,0,
2001-01-04, 01:45:00,VALID,917.082,VALID,0,VALID,99.1572,VALID,-0.0169808,VALID,18.7563,VALID,107,VALID,0,
2001-01-04, 01:46:00,VALID,917.064,VALID,0,VALID,99.1356,VALID,-0.0339617,VALID,18.7332,VALID,97,VALID,0,
2001-01-04, 01:47:00,VALID,917.039,VALID,0,VALID,99.1343,VALID,-0.0169808,VALID,18.7277,VALID,97,VALID,0,
2001-01-04, 01:48:00,VALID,917.026,VALID,0,VALID,99.1445,VALID,0,VALID,18.7267,VALID,99,VALID,0,
2001-01-04, 01:49:00,VALID,917.017,VALID,0,VALID,99.1483,VALID,0,VALID,18.7267,VALID,103,VALID,0,
2001-01-04, 01:50:00,VALID,916.999,VALID,0,VALID,99.1585,VALID,0,VALID,18.7339,VALID,102,VALID,0.736225,
2001-01-04, 01:51:00,VALID,916.975,VALID,0,VALID,99.1826,VALID,0,VALID,18.7429,VALID,103,VALID,0.592548,
2001-01-04, 01:52:00,VALID,916.964,VALID,0,VALID,99.2106,VALID,-0.0169808,VALID,18.7397,VALID,98,VALID,0.589844,
2001-01-04, 01:53:00,VALID,916.947,VALID,0,VALID,99.2246,VALID,0.0339617,VALID,18.756,VALID,104,VALID,0.678686,
2001-01-04, 01:54:00,VALID,916.93,VALID,0,VALID,99.2335,VALID,0,VALID,18.766,VALID,103,VALID,0.723828,
2001-01-04, 01:55:00,VALID,916.896,VALID,0,VALID,99.2297,VALID,0,VALID,18.7494,VALID,102,VALID,0.479941,
2001-01-04, 01:56:00,VALID,916.88,VALID,0,VALID,99.2309,VALID,0,VALID,18.7595,VALID,102,VALID,0.485742,
2001-01-04, 01:57:00,VALID,916.843,VALID,0,VALID,99.2271,VALID,0,VALID,18.7203,VALID,100,VALID,0.5627,
2001-01-04, 01:58:00,VALID,916.813,VALID,0,VALID,99.2322,VALID,0.0169808,VALID,18.7108,VALID,103,VALID,0.710321,
2001-01-04, 01:59:00,VALID,916.792,VALID,0,VALID,99.222,VALID,-0.0169808,VALID,18.6981,VALID,98,VALID,0.534655,
2001-01-04, 02:00:00,VALID,916.763,VALID,0,VALID,99.2246,VALID,0,VALID,18.6815,VALID,87,VALID,0.503701,
2001-01-04, 02:01:00,VALID,916.718,VALID,0,VALID,99.2335,VALID,0,VALID,18.6718,VALID,97,VALID,0.534655,
2001-01-04, 02:02:00,VALID,916.699,VALID,0,VALID,99.236,VALID,0,VALID,18.6522,VALID,99,VALID,0.401563,
2001-01-04, 02:03:00,VALID,916.687,VALID,0,VALID,99.2335,VALID,0,VALID,18.643,VALID,76,VALID,0.702069,
2001-01-04, 02:04:00,VALID,916.665,VALID,0,VALID,99.2297,VALID,0,VALID,18.6432,VALID,91,VALID,1.17793,
2001-01-04, 02:05:00,VALID,916.636,VALID,0,VALID,99.2157,VALID,0,VALID,18.6241,VALID,101,VALID,1.00321,
2001-01-04, 02:06:00,VALID,916.6,VALID,0,VALID,99.1941,VALID,0.0169808,VALID,18.598,VALID,89,VALID,1.11328,
2001-01-04, 02:07:00,VALID,916.574,VALID,0,VALID,99.1699,VALID,0.0169808,VALID,18.5687,VALID,94,VALID,0.807492,
2001-01-04, 02:08:00,VALID,916.543,VALID,0,VALID,99.161,VALID,0,VALID,18.5495,VALID,100,VALID,0.795641,
2001-01-04, 02:09:00,VALID,916.52,VALID,0,VALID,99.1585,VALID,0,VALID,18.5498,VALID,95,VALID,0.644231,
2001-01-04, 02:10:00,VALID,916.499,VALID,0,VALID,99.1699,VALID,0,VALID,18.5362,VALID,52,VALID,0.344336,
2001-01-04, 02:11:00,VALID,916.492,VALID,0,VALID,99.1508,VALID,0.0339617,VALID,18.5103,VALID,76,VALID,0.803843,
2001-01-04, 02:12:00,VALID,916.463,VALID,0,VALID,99.1254,VALID,0,VALID,18.5172,VALID,81,VALID,0.502148,
2001-01-04, 02:13:00,VALID,916.445,VALID,0,VALID,99.1203,VALID,0,VALID,18.4976,VALID,81,VALID,1.0637,
2001-01-04, 02:14:00,VALID,916.416,VALID,0,VALID,99.0961,VALID,0,VALID,18.4946,VALID,95,VALID,0.946135,
2001-01-04, 02:15:00,VALID,916.395,VALID,0,VALID,99.0771,VALID,0,VALID,18.4949,VALID,51,VALID,0.908454,
2001-01-04, 02:16:00,VALID,916.368,VALID,0,VALID,99.0186,VALID,0.0339617,VALID,18.4713,VALID,21,VALID,0.740337,
2001-01-04, 02:17:00,VALID,916.35,VALID,0,VALID,98.9575,VALID,0.0169808,VALID,18.4879,VALID,22,VALID,0.900841,
2001-01-04, 02:18:00,VALID,916.33,VALID,0,VALID,98.8876,VALID,0.0169808,VALID,18.4817,VALID,32,VALID,0.741406,
2001-01-04, 02:19:00,VALID,916.304,VALID,0,VALID,98.81,VALID,-0.0169808,VALID,18.4852,VALID,4,VALID,0.375845,
2001-01-04, 02:20:00,VALID,916.289,VALID,0,VALID,98.7617,VALID,-0.0169808,VALID,18.4986,VALID,52,VALID,0.693359,
2001-01-04, 02:21:00,VALID,916.282,VALID,0,VALID,98.7121,VALID,-0.0679233,VALID,18.4896,VALID,94,VALID,0.886018,
2001-01-04, 02:22:00,VALID,916.266,VALID,0,VALID,98.6447,VALID,-0.0849042,VALID,18.4766,VALID,85,VALID,0.794408,
2001-01-04, 02:23:00,VALID,916.259,VALID,0,VALID,98.5405,VALID,-0.101885,VALID,18.448,VALID,82,VALID,0.946114,
2001-01-04, 02:24:00,VALID,916.247,VALID,0,VALID,98.4464,VALID,-0.101885,VALID,18.4381,VALID,65,VALID,0.625617,
2001-01-04, 02:25:00,VALID,916.234,VALID,0,VALID,98.3332,VALID,-0.101885,VALID,18.425,VALID,71,VALID,0.833133,
2001-01-04, 02:26:00,VALID,916.222,VALID,0,VALID,98.2137,VALID,-0.101885,VALID,18.4314,VALID,81,VALID,0.872852,
2001-01-04, 02:27:00,VALID,916.208,VALID,0,VALID,98.1412,VALID,-0.101885,VALID,18.4183,VALID,103,VALID,0.764569,
2001-01-04, 02:28:00,VALID,916.193,VALID,0,VALID,98.0509,VALID,-0.101885,VALID,18.4155,VALID,94,VALID,0.944141,
2001-01-04, 02:29:00,VALID,916.185,VALID,0,VALID,97.9987,VALID,-0.0849042,VALID,18.3959,VALID,91,VALID,0.598157,
2001-01-04, 02:30:00,VALID,916.183,VALID,0,VALID,97.8856,VALID,-0.101885,VALID,18.3832,VALID,91,VALID,0.905016,
2001-01-04, 02:31:00,VALID,916.163,VALID,0,VALID,97.8525,VALID,-0.118866,VALID,18.37,VALID,97,VALID,0.614984,
2001-01-04, 02:32:00,VALID,916.144,VALID,0,VALID,97.8017,VALID,-0.101885,VALID,18.3603,VALID,95,VALID,1.29893,
2001-01-04, 02:33:00,VALID,916.109,VALID,0,VALID,97.7686,VALID,-0.0849042,VALID,18.3571,VALID,93,VALID,1.45613,
2001-01-04, 02:34:00,VALID,916.1,VALID,0,VALID,97.6745,VALID,-0.101885,VALID,18.3643,VALID,94,VALID,1.11484,
2001-01-04, 02:35:00,VALID,916.095,VALID,0,VALID,97.6249,VALID,-0.0679233,VALID,18.3567,VALID,97,VALID,1.06144,
2001-01-04, 02:36:00,VALID,916.064,VALID,0,VALID,97.5283,VALID,0,VALID,18.353,VALID,88,VALID,1.47969,
2001-01-04, 02:37:00,VALID,916.048,VALID,0,VALID,97.3846,VALID,-0.0169808,VALID,18.3753,VALID,83,VALID,0.945898,
2001-01-04, 02:38:00,VALID,916.046,VALID,0,VALID,97.2854,VALID,-0.0679233,VALID,18.3687,VALID,85,VALID,0.913651,
2001-01-04, 02:39:00,VALID,916.041,VALID,0,VALID,97.2358,VALID,0,VALID,18.3659,VALID,80,VALID,0.494792,
2001-01-04, 02:40:00,VALID,916.031,VALID,0,VALID,97.2231,VALID,-0.0169808,VALID,18.353,VALID,112,VALID,0.652755,
2001-01-04, 02:41:00,VALID,916.013,VALID,0,VALID,97.1989,VALID,0,VALID,18.34,VALID,91,VALID,1.02163,
2001-01-04, 02:42:00,VALID,915.991,VALID,0,VALID,97.0565,VALID,-0.0169808,VALID,18.3331,VALID,100,VALID,1.23926,
2001-01-04, 02:43:00,VALID,915.987,VALID,0,VALID,96.9077,VALID,-0.0169808,VALID,18.3465,VALID,108,VALID,1.20355,
2001-01-04, 02:44:00,VALID,915.954,VALID,0,VALID,96.7869,VALID,0,VALID,18.3534,VALID,91,VALID,1.10879,
2001-01-04, 02:45:00,VALID,915.941,VALID,0,VALID,96.5758,VALID,-0.0339617,VALID,18.3463,VALID,98,VALID,0.386819,
2001-01-04, 02:46:00,VALID,915.918,VALID,0,VALID,96.4894,VALID,0,VALID,18.3433,VALID,102,VALID,0.296875,
2001-01-04, 02:47:00,VALID,915.904,VALID,0,VALID,96.4181,VALID,-0.0339617,VALID,18.343,VALID,96,VALID,0.0919471,
2001-01-04, 02:48:00,VALID,915.893,VALID,0,VALID,96.3596,VALID,0,VALID,18.3368,VALID,68,VALID,0.190789,
2001-01-04, 02:49:00,VALID,915.898,VALID,0,VALID,96.2376,VALID,-0.0169808,VALID,18.3304,VALID,6,VALID,0.711739,
2001-01-04, 02:50:00,VALID,915.9,VALID,0,VALID,96.2643,VALID,-0.0339617,VALID,18.3269,VALID,51,VALID,0.509375,
2001-01-04, 02:51:00,VALID,915.896,VALID,0,VALID,96.235,VALID,0,VALID,18.3403,VALID,85,VALID,0.576436,
2001-01-04, 02:52:00,VALID,915.872,VALID,0,VALID,96.3037,VALID,0,VALID,18.3239,VALID,78,VALID,0.591406,
2001-01-04, 02:53:00,VALID,915.859,VALID,0,VALID,96.3813,VALID,-0.0169808,VALID,18.3112,VALID,87,VALID,1.01382,
2001-01-04, 02:54:00,VALID,915.843,VALID,0,VALID,96.4881,VALID,-0.0509425,VALID,18.2789,VALID,85,VALID,0.859375,
2001-01-04, 02:55:00,VALID,915.844,VALID,0,VALID,96.572,VALID,-0.0169808,VALID,18.263,VALID,74,VALID,0.992788,
2001-01-04, 02:56:00,VALID,915.846,VALID,0,VALID,96.6979,VALID,-0.0339617,VALID,18.2397,VALID,38,VALID,0.485814,
2001-01-04, 02:57:00,VALID,915.834,VALID,0,VALID,96.8645,VALID,-0.0849042,VALID,18.2468,VALID,33,VALID,0.295272,
2001-01-04, 02:58:00,VALID,915.82,VALID,0,VALID,96.9497,VALID,0,VALID,18.2203,VALID,92,VALID,0.732227,
2001-01-04, 02:59:00,VALID,915.8,VALID,0,VALID,96.9726,VALID,0,VALID,18.2173,VALID,84,VALID,0.440878,
2001-01-04, 03:00:00,VALID,915.817,VALID,0,VALID,97.0145,VALID,-0.0169808,VALID,18.2074,VALID,91,VALID,0.13418,
2001-01-04, 03:01:00,VALID,915.82,VALID,0,VALID,97.0349,VALID,-0.0169808,VALID,18.2113,VALID,98,VALID,0,
2001-01-04, 03:02:00,VALID,915.832,VALID,0,VALID,97.0641,VALID,-0.0169808,VALID,18.182,VALID,98,VALID,0,
2001-01-04, 03:03:00,VALID,915.843,VALID,0,VALID,97.1226,VALID,-0.0339617,VALID,18.1755,VALID,98,VALID,0,
2001-01-04, 03:04:00,VALID,915.836,VALID,0,VALID,97.1722,VALID,-0.0169808,VALID,18.1691,VALID,102,VALID,0,
2001-01-04, 03:05:00,VALID,915.829,VALID,0,VALID,97.1913,VALID,-0.0169808,VALID,18.1596,VALID,137,VALID,0,
2001-01-04, 03:06:00,VALID,915.829,VALID,0,VALID,97.162,VALID,-0.0509425,VALID,18.1725,VALID,139,VALID,0,
2001-01-04, 03:07:00,VALID,915.821,VALID,0,VALID,97.1264,VALID,-0.0169808,VALID,18.1852,VALID,151,VALID,0.417019,
2001-01-04, 03:08:00,VALID,915.829,VALID,0,VALID,97.0069,VALID,-0.0339617,VALID,18.1721,VALID,161,VALID,0.644141,
2001-01-04, 03:09:00,VALID,915.84,VALID,0,VALID,96.9471,VALID,-0.0509425,VALID,18.1691,VALID,155,VALID,0.876603,
2001-01-04, 03:10:00,VALID,915.82,VALID,0,VALID,96.9484,VALID,0,VALID,18.1592,VALID,151,VALID,0.728207,
2001-01-04, 03:11:00,VALID,915.817,VALID,0,VALID,96.956,VALID,-0.0339617,VALID,18.1658,VALID,164,VALID,0.809295,
2001-01-04, 03:12:00,VALID,915.817,VALID,0,VALID,96.8988,VALID,0,VALID,18.1495,VALID,168,VALID,0.726974,
2001-01-04, 03:13:00,VALID,915.803,VALID,0,VALID,96.8734,VALID,-0.0169808,VALID,18.1465,VALID,176,VALID,0.371795,
2001-01-04, 03:14:00,VALID,915.792,VALID,0,VALID,96.9052,VALID,-0.0169808,VALID,18.1527,VALID,194,VALID,0.6125,
2001-01-04, 03:15:00,VALID,915.784,VALID,0,VALID,96.8963,VALID,-0.0169808,VALID,18.1601,VALID,198,VALID,0.688556,
2001-01-04, 03:16:00,VALID,915.78,VALID,0,VALID,96.9624,VALID,0,VALID,18.1758,VALID,212,VALID,0.561719,
2001-01-04, 03:17:00,VALID,915.791,VALID,0,VALID,97.0323,VALID,-0.0169808,VALID,18.1758,VALID,230,VALID,0.677284,
2001-01-04, 03:18:00,VALID,915.799,VALID,0,VALID,97.1277,VALID,-0.0339617,VALID,18.1921,VALID,234,VALID,0.759457,
2001-01-04, 03:19:00,VALID,915.806,VALID,0,VALID,97.1264,VALID,-0.0849042,VALID,18.1919,VALID,234,VALID,0.663261,
2001-01-04, 03:20:00,VALID,915.806,VALID,0,VALID,97.0832,VALID,-0.0509425,VALID,18.1859,VALID,236,VALID,0.263158,
2001-01-04, 03:21:00,VALID,915.805,VALID,0,VALID,97.0667,VALID,-0.0339617,VALID,18.1758,VALID,231,VALID,0.429487,
2001-01-04, 03:22:00,VALID,915.8,VALID,0,VALID,97.0794,VALID,-0.0169808,VALID,18.179,VALID,223,VALID,0.283203,
2001-01-04, 03:23:00,VALID,915.798,VALID,0,VALID,97.087,VALID,-0.0169808,VALID,18.1656,VALID,234,VALID,0.310389,
2001-01-04, 03:24:00,VALID,915.806,VALID,0,VALID,97.176,VALID,-0.0169808,VALID,18.1497,VALID,239,VALID,0.541016,
2001-01-04, 03:25:00,VALID,915.808,VALID,0,VALID,97.2752,VALID,-0.0339617,VALID,18.1432,VALID,218,VALID,0.474359,
2001-01-04, 03:26:00,VALID,915.811,VALID,0,VALID,97.3668,VALID,-0.0339617,VALID,18.1273,VALID,228,VALID,0.439762,
2001-01-04, 03:27:00,VALID,915.822,VALID,0,VALID,97.3744,VALID,-0.0169808,VALID,18.1105,VALID,215,VALID,0.467348,
2001-01-04, 03:28:00,VALID,915.803,VALID,0,VALID,97.4024,VALID,-0.0169808,VALID,18.1109,VALID,199,VALID,0.356086,
2001-01-04, 03:29:00,VALID,915.802,VALID,0,VALID,97.3172,VALID,-0.0169808,VALID,18.1077,VALID,189,VALID,0.330929,
2001-01-04, 03:30:00,VALID,915.786,VALID,0,VALID,97.2383,VALID,-0.0679233,VALID,18.1047,VALID,181,VALID,0.390234,
2001-01-04, 03:31:00,VALID,915.795,VALID,0,VALID,97.1328,VALID,-0.0339617,VALID,18.0948,VALID,181,VALID,0.46516,
2001-01-04, 03:32:00,VALID,915.779,VALID,0,VALID,97.0934,VALID,-0.0679233,VALID,18.0982,VALID,181,VALID,0.603125,
2001-01-04, 03:33:00,VALID,915.785,VALID,0,VALID,97.0794,VALID,-0.0169808,VALID,18.1015,VALID,183,VALID,0.513622,
2001-01-04, 03:34:00,VALID,915.767,VALID,0,VALID,97.0501,VALID,-0.0169808,VALID,18.1077,VALID,198,VALID,0.343956,
2001-01-04, 03:35:00,VALID,915.77,VALID,0,VALID,97.1112,VALID,0,VALID,18.101,VALID,202,VALID,0.0504808,
2001-01-04, 03:36:00,VALID,915.758,VALID,0,VALID,97.1976,VALID,0,VALID,18.0982,VALID,202,VALID,0,
2001-01-04, 03:37:00,VALID,915.75,VALID,0,VALID,97.3159,VALID,0,VALID,18.1109,VALID,202,VALID,0,